Погода в Вестманнаэйяре

Исландия     63°26′20″N   20°16′19″W
темп.,
°C
ветер,
м/с
пор.,
м/с
влажн.,
%
обл.,
%
осадки,
мм/ч
давл.,
гПа
погр.,
м
27 октября, ср
ср2700:00+8ююв101188100 4.7 972753
03:00+6ю91080100 1.4 9781095
06:00+7ююв5667100 2.3 979940
09:00+7в457223 0.2 981327
12:00+7в5672100 0.3 981519
15:00+7всв4569100 0.0 981416
18:00+7всв456780 0.0 980283
21:00+6всв456857 0.0 980345
28 октября, чт
чт2800:00+6св457136 0.0 980300
03:00+6св457333 0.0 978322
06:00+6св4574100 0.0 978306
09:00+6всв467894 0.1 978302
12:00+6ссв5782100 0.8 978361
15:00+6ссв4578100 1.3 978318
18:00+6ссв337898 1.3 978152
21:00+6с337563 0.0 978109
29 октября, пт
пт2900:00+5ссв4476100 0.0 977142
03:00+6ссв3378100 0.1 977141
06:00+6ссв2377100 0.1 978106
09:00+6с557594 0.0 978156
12:00+7ссв677328 0.0 978246
15:00+7св2376100 0.0 979205
18:00+7с3480100 0.2 980159
21:00+7ссв458095 0.0 981156
30 октября, сб
сб3000:00+7св568299 0.1 981301
03:00+7всв578240 0.2 981526
06:00+7всв56805 0.3 983507
09:00+7всв578298 0.1 984403
12:00+7ссв448376 0.1 985196
15:00+7с447473 0.0 986132
18:00+6с557589 0.0 987160
21:00+6с6773100 0.0 988185
31 октября, вс
вс3100:00+6с8107899 0.0 988242
03:00+6с9118269 0.0 989372
06:00+5с10127513 0.0 991452
09:00+4с10137521 0.0 991518
12:00+4с1112725 0.0 992637
15:00+5с1011675 0.0 991667
18:00+4с810731 0.0 992481
21:00+3с79773 0.0 992322